• In Hungary
  • List of Countries
  • For 7 days
  • Water Temperature
  • Satellite Maps
  • Weather Map
  • News
  • Weather Widgets
  • user-avatar
    Login

    Hourly Weather Bulawayo

    Today, 14 November, Wednesday

    Time Temperature Precipitation Wind Pressure Humidity
    00:00 +20°C° 0 mm 3 mps 650 mmHg 33%
    01:00 +19°C° 0 mm 3 mps 649 mmHg 34%
    02:00 +18°C° 0 mm 3 mps 649 mmHg 35%
    03:00 +18°C° 0 mm 2 mps 649 mmHg 36%
    04:00 +17°C° 0 mm 2 mps 649 mmHg 38%
    05:00 +16°C° 0 mm 2 mps 648 mmHg 39%
    06:00 +19°C° 0 mm 3 mps 649 mmHg 34%
    07:00 +21°C° 0 mm 4 mps 650 mmHg 29%
    08:00 +23°C° 0 mm 5 mps 651 mmHg 25%
    09:00 +26°C° 0 mm 5 mps 652 mmHg 21%
    10:00 +28°C° 0 mm 5 mps 652 mmHg 17%
    11:00 +30°C° 0 mm 6 mps 652 mmHg 13%
    12:00 +32°C° 0 mm 6 mps 652 mmHg 12%
    13:00 +33°C° 0 mm 6 mps 651 mmHg 11%
    14:00 +34°C° 0 mm 6 mps 651 mmHg 10%
    15:00 +33°C° 0 mm 6 mps 650 mmHg 11%
    16:00 +33°C° 0 mm 6 mps 650 mmHg 12%
    17:00 +32°C° 0 mm 6 mps 649 mmHg 13%
    18:00 +29°C° 0 mm 5 mps 649 mmHg 16%
    19:00 +27°C° 0 mm 5 mps 649 mmHg 20%
    20:00 +23°C° 0 mm 4 mps 649 mmHg 24%
    21:00 +23°C° 0 mm 4 mps 649 mmHg 26%
    22:00 +22°C° 0 mm 4 mps 650 mmHg 28%
    23:00 +21°C° 0 mm 4 mps 650 mmHg 30%

    Tomorrow, 15 November, Thursday

    Time Temperature Precipitation Wind Pressure Humidity
    00:00 +20°C° 0 mm 3 mps 650 mmHg 32%
    01:00 +19°C° 0 mm 3 mps 649 mmHg 33%
    02:00 +18°C° 0 mm 3 mps 649 mmHg 35%
    03:00 +18°C° 0 mm 3 mps 649 mmHg 37%
    04:00 +17°C° 0 mm 3 mps 649 mmHg 40%
    05:00 +16°C° 0 mm 2 mps 649 mmHg 42%
    06:00 +19°C° 0 mm 3 mps 650 mmHg 38%
    07:00 +21°C° 0 mm 4 mps 651 mmHg 34%
    08:00 +23°C° 0 mm 4 mps 652 mmHg 30%
    09:00 +27°C° 0 mm 4 mps 652 mmHg 25%
    10:00 +29°C° 0 mm 4 mps 652 mmHg 20%
    11:00 +32°C° 0 mm 4 mps 652 mmHg 14%
    12:00 +33°C° 0 mm 4 mps 652 mmHg 13%
    13:00 +34°C° 0 mm 4 mps 652 mmHg 12%
    14:00 +35°C° 0 mm 4 mps 651 mmHg 11%
    15:00 +35°C° 0 mm 5 mps 651 mmHg 12%
    16:00 +34°C° 0 mm 5 mps 650 mmHg 13%
    17:00 +33°C° 0 mm 5 mps 650 mmHg 15%
    18:00 +30°C° 0 mm 5 mps 650 mmHg 19%
    19:00 +28°C° 0 mm 5 mps 650 mmHg 23%
    20:00 +26°C° 0 mm 4 mps 650 mmHg 27%
    21:00 +25°C° 0 mm 4 mps 650 mmHg 30%
    22:00 +23°C° 0 mm 4 mps 650 mmHg 33%
    23:00 +22°C° 0 mm 4 mps 651 mmHg 35%

    Day after tomorrow, 16 November, Friday

    Time Temperature Precipitation Wind Pressure Humidity
    00:00 +22°C° 0 mm 4 mps 650 mmHg 39%
    01:00 +21°C° 0 mm 4 mps 650 mmHg 42%
    02:00 +20°C° 0 mm 3 mps 649 mmHg 45%
    03:00 +19°C° 0 mm 3 mps 649 mmHg 49%
    04:00 +19°C° 0 mm 3 mps 649 mmHg 53%
    05:00 +18°C° 0 mm 3 mps 649 mmHg 57%
    06:00 +21°C° 0 mm 3 mps 650 mmHg 48%
    07:00 +24°C° 0 mm 3 mps 652 mmHg 40%
    08:00 +26°C° 0 mm 4 mps 653 mmHg 31%
    09:00 +29°C° 0 mm 3 mps 653 mmHg 26%
    10:00 +31°C° 0 mm 3 mps 653 mmHg 21%
    11:00 +34°C° 0 mm 2 mps 654 mmHg 16%
    12:00 +35°C° 0 mm 2 mps 653 mmHg 14%
    13:00 +36°C° 0 mm 3 mps 652 mmHg 12%
    14:00 +37°C° 0 mm 3 mps 652 mmHg 10%
    15:00 +36°C° 0 mm 4 mps 651 mmHg 10%
    16:00 +36°C° 0 mm 4 mps 651 mmHg 10%
    17:00 +35°C° 0 mm 5 mps 650 mmHg 10%
    18:00 +33°C° 0 mm 5 mps 650 mmHg 14%
    19:00 +30°C° 0 mm 5 mps 650 mmHg 17%
    20:00 +28°C° 0 mm 5 mps 651 mmHg 20%
    21:00 +27°C° 0 mm 5 mps 651 mmHg 22%
    22:00 +26°C° 0 mm 5 mps 651 mmHg 24%
    23:00 +25°C° 0 mm 4 mps 651 mmHg 25%

    17 November, Saturday

    Time Temperature Precipitation Wind Pressure Humidity
    00:00 +23°C° 0 mm 4 mps 650 mmHg 28%
    01:00 +22°C° 0 mm 4 mps 650 mmHg 31%
    02:00 +21°C° 0 mm 3 mps 649 mmHg 34%
    03:00 +21°C° 0 mm 3 mps 649 mmHg 38%
    04:00 +20°C° 0 mm 2 mps 649 mmHg 41%
    05:00 +20°C° 0 mm 2 mps 649 mmHg 45%
    06:00 +23°C° 0 mm 2 mps 650 mmHg 40%
    07:00 +26°C° 0 mm 3 mps 651 mmHg 36%
    08:00 +28°C° 0 mm 3 mps 652 mmHg 31%
    09:00 +31°C° 0 mm 3 mps 653 mmHg 27%
    10:00 +34°C° 0 mm 2 mps 653 mmHg 22%
    11:00 +36°C° 0 mm 1 mps 653 mmHg 18%
    12:00 +37°C° 0 mm 1 mps 653 mmHg 16%
    13:00 +39°C° 0 mm 1 mps 652 mmHg 14%
    14:00 +40°C° 0 mm 1 mps 651 mmHg 11%
    15:00 +39°C° 0 mm 1 mps 651 mmHg 12%
    16:00 +37°C° 0 mm 2 mps 650 mmHg 12%
    17:00 +36°C° 0 mm 2 mps 649 mmHg 13%
    18:00 +34°C° 0 mm 2 mps 650 mmHg 15%
    19:00 +32°C° 0 mm 2 mps 650 mmHg 17%
    20:00 +30°C° 0 mm 2 mps 650 mmHg 19%
    21:00 +29°C° 0 mm 3 mps 650 mmHg 21%
    22:00 +28°C° 0 mm 3 mps 650 mmHg 24%
    23:00 +27°C° 0 mm 3 mps 650 mmHg 26%

    18 November, Sunday

    Time Temperature Precipitation Wind Pressure Humidity
    00:00 +26°C° 0 mm 3 mps 650 mmHg 28%
    01:00 +26°C° 0 mm 3 mps 649 mmHg 29%
    02:00 +25°C° 0 mm 3 mps 649 mmHg 31%
    03:00 +25°C° 0 mm 3 mps 649 mmHg 32%
    04:00 +24°C° 0 mm 2 mps 649 mmHg 34%
    05:00 +23°C° 0 mm 2 mps 649 mmHg 35%
    06:00 +26°C° 0 mm 3 mps 650 mmHg 32%
    07:00 +28°C° 0 mm 4 mps 651 mmHg 29%
    08:00 +30°C° 0 mm 4 mps 652 mmHg 27%
    09:00 +33°C° 0 mm 4 mps 653 mmHg 24%
    10:00 +34°C° 0 mm 3 mps 653 mmHg 21%
    11:00 +36°C° 0 mm 3 mps 653 mmHg 19%
    12:00 +37°C° 0 mm 3 mps 652 mmHg 17%
    13:00 +37°C° 0 mm 4 mps 651 mmHg 15%
    14:00 +38°C° 0 mm 4 mps 651 mmHg 14%
    15:00 +37°C° 0 mm 4 mps 650 mmHg 15%
    16:00 +36°C° 0 mm 5 mps 650 mmHg 16%
    17:00 +35°C° 0 mm 5 mps 650 mmHg 17%
    18:00 +34°C° 0 mm 5 mps 650 mmHg 21%
    19:00 +32°C° 0 mm 5 mps 650 mmHg 25%
    20:00 +29°C° 0 mm 4 mps 650 mmHg 29%
    21:00 +28°C° 0 mm 5 mps 650 mmHg 31%
    22:00 +27°C° 0 mm 5 mps 651 mmHg 33%
    23:00 +26°C° 0 mm 5 mps 651 mmHg 36%

    19 November, Monday

    Time Temperature Precipitation Wind Pressure Humidity
    00:00 +26°C° 0 mm 5 mps 651 mmHg 41%
    01:00 +25°C° 0 mm 5 mps 650 mmHg 46%
    02:00 +23°C° 0 mm 6 mps 650 mmHg 51%
    03:00 +22°C° 0 mm 6 mps 650 mmHg 58%
    04:00 +21°C° 0 mm 5 mps 650 mmHg 64%
    05:00 +20°C° 0 mm 5 mps 650 mmHg 71%
    06:00 +21°C° 0 mm 5 mps 651 mmHg 68%
    07:00 +22°C° 0 mm 5 mps 652 mmHg 65%
    08:00 +23°C° 0 mm 6 mps 653 mmHg 62%
    09:00 +26°C° 0 mm 5 mps 653 mmHg 52%
    10:00 +29°C° 0 mm 5 mps 653 mmHg 42%
    11:00 +32°C° 0 mm 5 mps 653 mmHg 32%
    12:00 +33°C° 0 mm 5 mps 652 mmHg 27%
    13:00 +34°C° 0 mm 5 mps 652 mmHg 22%
    14:00 +36°C° 0 mm 5 mps 651 mmHg 17%
    15:00 +35°C° 0 mm 5 mps 650 mmHg 17%
    16:00 +34°C° 0 mm 5 mps 650 mmHg 17%
    17:00 +34°C° 0 mm 5 mps 649 mmHg 17%
    18:00 +32°C° 0 mm 5 mps 649 mmHg 21%
    19:00 +29°C° 0 mm 4 mps 649 mmHg 25%
    20:00 +27°C° 0 mm 4 mps 649 mmHg 30%
    21:00 +26°C° 0 mm 4 mps 650 mmHg 33%
    22:00 +26°C° 0 mm 4 mps 650 mmHg 37%
    23:00 +25°C° 0 mm 4 mps 650 mmHg 41%
    Show more